| time (UTC) | temp F | wind direction | speed knots | gust knots | rain 1hr in | rain 24hr in | rain mn in | humidity % | barometer mb |
| 20260503021522 | 50 | 287 | 0.0 | 0.9 | 0.00 | 0.03 | 0.03 | 62 | 1012.9 |
| 20260503020019 | 50 | 289 | 0.0 | 0.0 | 0.00 | 0.03 | 0.03 | 60 | 1012.9 |
| 20260503014518 | 51 | 289 | 0.0 | 0.0 | 0.00 | 0.03 | 0.03 | 58 | 1012.8 |
| 20260503013032 | 52 | 303 | 0.0 | 4.3 | 0.00 | 0.03 | 0.03 | 57 | 1012.8 |
| 20260503011517 | 51 | 316 | 0.0 | 0.9 | 0.00 | 0.03 | 0.03 | 58 | 1012.6 |
| 20260503010016 | 53 | 297 | 0.0 | 4.3 | 0.00 | 0.03 | 0.03 | 54 | 1012.5 |
| 20260503004516 | 53 | 307 | 0.0 | 4.3 | 0.00 | 0.03 | 0.03 | 53 | 1012.2 |
| 20260503003015 | 53 | 317 | 2.6 | 5.2 | 0.00 | 0.03 | 0.03 | 54 | 1012.1 |
| 20260503001515 | 54 | 319 | 0.0 | 3.5 | 0.00 | 0.03 | 0.03 | 52 | 1011.8 |
| 20260503000016 | 55 | 284 | 0.0 | 7.0 | 0.00 | 0.03 | 0.03 | 49 | 1011.7 |
| 20260502234514 | 55 | 5 | 0.0 | 4.3 | 0.00 | 0.03 | 0.03 | 48 | 1011.4 |
| 20260502233027 | 56 | 319 | 0.0 | 7.0 | 0.00 | 0.03 | 0.03 | 47 | 1011.3 |
| 20260502231512 | 56 | 294 | 0.9 | 7.8 | 0.00 | 0.03 | 0.03 | 46 | 1011.3 |
| 20260502230012 | 57 | 313 | 0.0 | 5.2 | 0.00 | 0.03 | 0.03 | 46 | 1011.2 |
| 20260502224511 | 57 | 314 | 0.0 | 6.1 | 0.00 | 0.03 | 0.03 | 47 | 1011.1 |
| 20260502223011 | 57 | 327 | 0.0 | 0.9 | 0.00 | 0.03 | 0.03 | 45 | 1011.2 |
| 20260502221515 | 58 | 295 | 0.0 | 9.6 | 0.00 | 0.03 | 0.03 | 45 | 1011.2 |
| 20260502220015 | 59 | 319 | 2.6 | 7.8 | 0.00 | 0.03 | 0.03 | 46 | 1011.2 |
| 20260502214511 | 59 | 345 | 1.7 | 8.7 | 0.00 | 0.03 | 0.03 | 45 | 1011.3 |
| 20260502213010 | 60 | 315 | 4.3 | 9.6 | 0.00 | 0.03 | 0.03 | 44 | 1011.0 |
| 20260502211509 | 60 | 284 | 0.9 | 9.6 | 0.00 | 0.03 | 0.03 | 45 | 1011.0 |
| 20260502210009 | 59 | 333 | 0.0 | 7.8 | 0.00 | 0.03 | 0.03 | 41 | 1010.9 |
| 20260502204507 | 59 | 355 | 3.5 | 7.8 | 0.00 | 0.03 | 0.03 | 43 | 1010.9 |
| 20260502203005 | 61 | 315 | 3.5 | 7.8 | 0.00 | 0.03 | 0.03 | 43 | 1010.9 |
| 20260502201505 | 59 | 332 | 0.9 | 6.1 | 0.00 | 0.03 | 0.03 | 45 | 1010.9 |
| 20260502200004 | 61 | 342 | 1.7 | 7.0 | 0.00 | 0.03 | 0.03 | 40 | 1010.8 |
| 20260502194505 | 61 | 306 | 0.0 | 7.0 | 0.00 | 0.03 | 0.03 | 45 | 1011.0 |
| 20260502193001 | 60 | 331 | 0.0 | 7.0 | 0.00 | 0.03 | 0.03 | 48 | 1011.3 |
| 20260502191607 | 60 | 337 | 3.5 | 8.7 | 0.00 | 0.03 | 0.03 | 44 | 1011.7 |
| 20260502190058 | 62 | 283 | 3.5 | 9.6 | 0.00 | 0.03 | 0.03 | 45 | 1011.9 |
| 20260502184602 | 61 | 42 | 1.7 | 7.0 | 0.00 | 0.03 | 0.03 | 54 | 1012.2 |
| 20260502183056 | 62 | 246 | 0.0 | 8.7 | 0.00 | 0.03 | 0.03 | 52 | 1012.3 |
| 20260502181555 | 61 | 279 | 3.5 | 9.6 | 0.00 | 0.03 | 0.03 | 44 | 1012.6 |
| 20260502163049 | 57 | 5 | 0.0 | 5.2 | 0.00 | 0.03 | 0.03 | 54 | 1013.5 |
| 20260502161540 | 56 | 95 | 0.0 | 6.1 | 0.00 | 0.03 | 0.03 | 57 | 1013.7 |
| 20260502151549 | 54 | 314 | 0.9 | 8.7 | 0.00 | 0.03 | 0.03 | 61 | 1014.4 |
| 20260502123024 | 50 | 351 | 2.6 | 9.6 | 0.00 | 0.03 | 0.03 | 74 | 1013.7 |
| 20260502121511 | 50 | 316 | 0.0 | 5.2 | 0.00 | 0.03 | 0.03 | 73 | 1013.5 |
| 20260502114508 | 49 | 324 | 2.6 | 9.6 | 0.00 | 0.03 | 0.03 | 74 | 1013.8 |
| 20260502113006 | 49 | 343 | 2.6 | 7.8 | 0.00 | 0.03 | 0.03 | 74 | 1014.0 |
| 20260502111502 | 48 | 309 | 2.6 | 7.8 | 0.00 | 0.03 | 0.03 | 76 | 1013.8 |
| 20260502110100 | 48 | 309 | 5.2 | 9.6 | 0.00 | 0.03 | 0.03 | 76 | 1013.6 |
| 20260502104557 | 48 | 293 | 2.6 | 7.8 | 0.00 | 0.03 | 0.03 | 79 | 1013.4 |
| 20260502103104 | 47 | 308 | 1.7 | 7.0 | 0.00 | 0.03 | 0.03 | 84 | 1013.3 |
| 20260502101559 | 46 | 331 | 1.7 | 7.0 | 0.00 | 0.03 | 0.03 | 88 | 1013.1 |
| 20260502100113 | 46 | 323 | 0.0 | 0.0 | 0.00 | 0.03 | 0.03 | 90 | 1013.0 |
| 20260502070034 | 48 | 191 | 0.0 | 0.0 | 0.00 | 0.03 | 0.03 | 92 | 1012.0 |
| 20260502064532 | 49 | 191 | 0.0 | 0.0 | 0.00 | 0.03 | 0.03 | 92 | 1012.0 |
| 20260502063029 | 50 | 191 | 0.0 | 0.0 | 0.00 | 0.03 | 0.03 | 92 | 1012.2 |
| 20260502061534 | 50 | 190 | 0.0 | 0.0 | 0.01 | 0.03 | 0.03 | 92 | 1012.3 |
| 20260502060024 | 50 | 298 | 0.0 | 0.0 | 0.01 | 0.03 | 0.03 | 91 | 1012.2 |
| 20260502054524 | 51 | 298 | 0.0 | 0.0 | 0.01 | 0.03 | 0.03 | 91 | 1012.2 |
| 20260502053023 | 51 | 298 | 0.0 | 0.0 | 0.03 | 0.03 | 0.03 | 90 | 1012.2 |
| 20260502051524 | 51 | 298 | 0.0 | 0.0 | 0.02 | 0.02 | 0.02 | 90 | 1012.4 |
| 20260502050018 | 51 | 298 | 0.0 | 0.9 | 0.02 | 0.02 | 0.02 | 88 | 1012.5 |
| 20260502044517 | 52 | 298 | 0.0 | 3.5 | 0.02 | 0.02 | 0.02 | 87 | 1012.7 |
| 20260502043020 | 52 | 228 | 0.0 | 0.9 | 0.00 | 0.00 | 0.00 | 85 | 1012.5 |
| 20260502041519 | 52 | 177 | 0.0 | 0.9 | 0.00 | 0.00 | 0.00 | 83 | 1012.0 |
| 20260502040013 | 52 | 159 | 0.0 | 0.0 | 0.00 | 0.00 | 0.00 | 81 | 1012.0 |
| 20260502034508 | 52 | 132 | 0.0 | 0.0 | 0.00 | 0.00 | 0.00 | 79 | 1011.8 |
| 20260502033012 | 53 | 132 | 0.0 | 0.0 | 0.00 | 0.00 | 0.00 | 78 | 1011.9 |
| 20260502031507 | 52 | 143 | 0.0 | 2.6 | 0.00 | 0.00 | 0.00 | 77 | 1011.7 |
| 20260502030006 | 52 | 152 | 0.0 | 2.6 | 0.00 | 0.00 | 0.00 | 77 | 1011.4 |
| 20260502024509 | 53 | 134 | 0.0 | 3.5 | 0.00 | 0.00 | 0.00 | 77 | 1011.6 |
| 20260502023008 | 52 | 139 | 0.0 | 2.6 | 0.00 | 0.00 | 0.00 | 76 | 1011.6 |